User: anonymous   Login
Location: Castelbiague
(43.0361°N, 0.9246°E)
Time: 20:21:49
(UTC+00:00)
Language:

Uribyol 2 - Orbit

View from above orbital plane
View from above orbital plane
View from above satellite
View from above satellite

Ground track
Ground track

The orbit data is extracted from the following two-line orbital elements,

1 22828U 93061F   22016.03453296  .00000077  00000-0  47218-4 0  9994
2 22828  98.8982  42.1636 0010937  88.4724 271.7710 14.30812686445280
Epoch (UTC): 16 January 2022 00:49:43
Eccentricity: 0.0010937
inclination: 98.8982°
perigee height: 781 km
apogee height: 797 km
right ascension of ascending node: 42.1636°
argument of perigee: 88.4724°
revolutions per day: 14.30812686
mean anomaly at epoch: 271.7710°
orbit number at epoch: 44528

The dashed part of the orbit path shows where the satellite is in the earth's shadow,  

DLR